TimeCDT,TemperatureF,Dew PointF,Humidity,Sea Level PressureIn,VisibilityMPH,Wind Direction,Wind SpeedMPH,Gust SpeedMPH,PrecipitationIn,Events,Conditions,WindDirDegrees,DateUTC
12:15 AM,51.8,50.0,94,30.04,3.0,ESE,10.4,-,N/A,,Overcast,120,2013-10-30 05:15:00
12:35 AM,51.8,50.0,94,30.05,2.0,SE,8.1,-,N/A,,Overcast,140,2013-10-30 05:35:00
12:55 AM,51.8,50.0,94,30.04,1.2,ESE,9.2,-,N/A,,Overcast,120,2013-10-30 05:55:00
1:15 AM,51.8,50.0,94,30.03,1.0,ESE,9.2,-,N/A,,Overcast,120,2013-10-30 06:15:00
1:35 AM,51.8,51.8,100,30.03,1.2,ESE,8.1,-,N/A,,Overcast,120,2013-10-30 06:35:00
1:55 AM,51.8,51.8,100,30.03,1.5,SE,6.9,-,N/A,,Overcast,130,2013-10-30 06:55:00
2:15 AM,53.6,51.8,94,30.03,1.5,SE,6.9,-,N/A,,Overcast,130,2013-10-30 07:15:00
2:35 AM,53.6,51.8,94,30.03,1.5,SE,8.1,-,N/A,,Overcast,140,2013-10-30 07:35:00
2:55 AM,53.6,51.8,94,30.03,1.2,SE,6.9,-,N/A,,Overcast,140,2013-10-30 07:55:00
3:15 AM,53.6,51.8,94,30.02,0.5,SE,6.9,-,N/A,,Overcast,130,2013-10-30 08:15:00
3:35 AM,53.6,51.8,94,30.01,0.2,SE,8.1,-,N/A,,Light Drizzle,130,2013-10-30 08:35:00
3:55 AM,53.6,51.8,94,30.01,0.2,SE,9.2,-,N/A,,Light Drizzle,130,2013-10-30 08:55:00
4:15 AM,53.6,51.8,94,30.00,0.2,SE,8.1,-,N/A,Fog,Fog,130,2013-10-30 09:15:00
4:35 AM,53.6,51.8,94,30.00,0.2,SE,6.9,-,N/A,Fog,Fog,130,2013-10-30 09:35:00
4:55 AM,53.6,51.8,94,29.99,0.2,ESE,8.1,-,N/A,Fog,Fog,120,2013-10-30 09:55:00
5:15 AM,53.6,51.8,94,30.00,0.2,ESE,8.1,-,N/A,Fog,Fog,120,2013-10-30 10:15:00
5:35 AM,53.6,51.8,94,30.01,0.2,SE,8.1,-,N/A,,Light Drizzle,130,2013-10-30 10:35:00
5:55 AM,53.6,53.6,100,30.00,0.2,SE,10.4,-,N/A,,Light Drizzle,130,2013-10-30 10:55:00
6:15 AM,53.6,53.6,100,30.01,0.2,SE,6.9,-,N/A,Fog,Fog,130,2013-10-30 11:15:00
6:35 AM,53.6,53.6,100,29.99,0.2,ESE,9.2,-,N/A,,Light Drizzle,120,2013-10-30 11:35:00
6:55 AM,53.6,53.6,100,29.99,0.2,SE,8.1,-,N/A,Fog,Fog,130,2013-10-30 11:55:00
7:15 AM,53.6,53.6,100,29.99,0.5,SE,10.4,-,N/A,Fog,Fog,140,2013-10-30 12:15:00
7:35 AM,53.6,53.6,100,29.98,0.5,SE,10.4,-,N/A,Fog,Fog,140,2013-10-30 12:35:00
7:55 AM,55.4,53.6,94,29.99,0.2,SE,9.2,-,N/A,Fog,Fog,140,2013-10-30 12:55:00
8:15 AM,55.4,53.6,94,29.99,0.5,SSE,10.4,-,N/A,Fog,Fog,150,2013-10-30 13:15:00
8:35 AM,55.4,53.6,94,30.00,0.2,SSE,11.5,-,N/A,Fog,Fog,160,2013-10-30 13:35:00
8:55 AM,55.4,53.6,94,30.00,0.2,Variable,5.8,15.0,N/A,,Light Drizzle,0,2013-10-30 13:55:00
9:15 AM,55.4,55.4,100,29.97,0.8,SSE,17.3,23.0,N/A,Rain,Light Rain,160,2013-10-30 14:15:00
9:35 AM,57.2,55.4,94,29.92,1.5,SE,18.4,-,N/A,,Overcast,140,2013-10-30 14:35:00
9:55 AM,55.4,55.4,100,29.89,0.5,SE,12.7,21.9,0.01,,Overcast,140,2013-10-30 14:55:00
10:15 AM,57.2,57.2,100,29.89,1.8,SE,12.7,23.0,N/A,,Overcast,130,2013-10-30 15:15:00
10:35 AM,59.0,57.2,94,29.89,3.0,SE,15.0,-,N/A,,Overcast,140,2013-10-30 15:35:00
10:55 AM,59.0,59.0,100,29.87,3.0,SE,11.5,-,N/A,,Overcast,140,2013-10-30 15:55:00
11:15 AM,59.0,59.0,100,29.88,4.0,SSE,10.4,16.1,N/A,,Overcast,150,2013-10-30 16:15:00
11:35 AM,60.8,59.0,94,29.90,6.0,Calm,Calm,-,N/A,,Overcast,0,2013-10-30 16:35:00
11:55 AM,60.8,59.0,94,29.92,6.0,Calm,Calm,-,N/A,,Overcast,0,2013-10-30 16:55:00
12:15 PM,60.8,59.0,94,29.97,3.0,WNW,5.8,-,N/A,,Light Drizzle,300,2013-10-30 17:15:00
12:35 PM,60.8,59.0,94,29.97,2.5,NW,5.8,-,N/A,Rain,Light Rain,320,2013-10-30 17:35:00
12:55 PM,59.0,59.0,100,29.92,1.8,NNE,10.4,-,0.03,Rain,Rain,20,2013-10-30 17:55:00
1:15 PM,59.0,59.0,100,29.95,1.2,NNW,12.7,-,N/A,Rain,Rain,340,2013-10-30 18:15:00
1:35 PM,57.2,57.2,100,29.91,1.0,North,15.0,-,N/A,Rain,Light Rain,10,2013-10-30 18:35:00
1:55 PM,57.2,57.2,100,29.88,4.0,NE,15.0,-,0.26,Rain,Rain,40,2013-10-30 18:55:00
2:15 PM,57.2,57.2,100,29.85,2.0,NNE,18.4,24.2,N/A,Rain,Heavy Rain,20,2013-10-30 19:15:00
2:35 PM,57.2,55.4,94,29.88,1.5,North,18.4,25.3,N/A,Rain,Heavy Rain,360,2013-10-30 19:35:00
2:55 PM,57.2,55.4,94,29.89,1.5,NNE,15.0,-,0.32,Rain,Heavy Rain,20,2013-10-30 19:55:00
3:15 PM,57.2,57.2,100,29.87,2.0,ENE,12.7,-,N/A,Rain,Heavy Rain,60,2013-10-30 20:15:00
3:35 PM,59.0,57.2,94,29.85,2.5,East,15.0,-,N/A,Rain,Rain,90,2013-10-30 20:35:00
3:55 PM,57.2,57.2,100,29.83,2.0,East,16.1,-,0.35,Rain,Rain,90,2013-10-30 20:55:00
4:15 PM,59.0,57.2,94,29.84,4.0,ESE,11.5,-,N/A,Rain,Rain,120,2013-10-30 21:15:00
4:35 PM,59.0,57.2,94,29.83,4.0,SE,19.6,-,N/A,Rain,Light Rain,130,2013-10-30 21:35:00
4:55 PM,59.0,57.2,94,29.85,3.0,ESE,19.6,26.5,0.20,Rain,Light Rain,120,2013-10-30 21:55:00
5:15 PM,59.0,57.2,94,29.80,3.0,ESE,26.5,33.4,N/A,Rain,Light Rain,110,2013-10-30 22:15:00
5:35 PM,59.0,57.2,94,29.80,5.0,East,16.1,27.6,N/A,Rain,Light Rain,100,2013-10-30 22:35:00
5:55 PM,59.0,57.2,94,29.81,10.0,ESE,15.0,23.0,0.12,,Overcast,110,2013-10-30 22:55:00
6:15 PM,59.0,55.4,88,29.82,10.0,ESE,15.0,-,N/A,,Overcast,110,2013-10-30 23:15:00
7:55 PM,57.2,55.4,94,29.79,4.0,ESE,12.7,19.6,0.29,Rain,Light Rain,110,2013-10-31 00:55:00
8:15 PM,57.2,55.4,94,29.79,4.0,ESE,13.8,-,N/A,Rain,Light Rain,110,2013-10-31 01:15:00
8:35 PM,57.2,57.2,100,29.79,7.0,SE,12.7,-,N/A,Rain,Light Rain,130,2013-10-31 01:35:00
8:55 PM,59.0,57.2,94,29.78,4.0,SE,8.1,-,0.13,Rain,Rain,140,2013-10-31 01:55:00
9:15 PM,59.0,57.2,94,29.78,4.0,SSE,4.6,-,N/A,Rain,Light Rain,150,2013-10-31 02:15:00
9:35 PM,60.8,59.0,94,29.77,1.5,SSE,12.7,18.4,N/A,Rain,Light Rain,150,2013-10-31 02:35:00
9:55 PM,59.0,57.2,94,29.77,9.0,SE,9.2,-,0.27,,Light Drizzle,140,2013-10-31 02:55:00
10:15 PM,59.0,59.0,100,29.76,4.0,SE,8.1,-,N/A,Rain,Light Rain,140,2013-10-31 03:15:00
10:35 PM,59.0,59.0,100,29.74,4.0,SE,9.2,-,N/A,Rain,Light Rain,140,2013-10-31 03:35:00
10:55 PM,60.8,59.0,94,29.74,9.0,SSE,11.5,17.3,0.07,,Overcast,150,2013-10-31 03:55:00
11:15 PM,60.8,59.0,94,29.71,9.0,SSE,12.7,-,N/A,,Overcast,150,2013-10-31 04:15:00
11:35 PM,62.6,60.8,94,29.70,10.0,South,12.7,-,N/A,,Overcast,170,2013-10-31 04:35:00
11:55 PM,62.6,60.8,94,29.68,10.0,SSE,10.4,-,N/A,,Overcast,160,2013-10-31 04:55:00